Regional Weather Roundup
Issued by NWS San Angelo, TX

Current Version | Previous Version | Text Only | Print | Product List | Glossary On
Versions: 1 2 3 4 5 6 7 8 9 10 11 12 13 14 15 16 17 18 19 20 21 22 23 24 25 26 27 28 29 30 31 32 33 34 35 36 37 38 39 40 41 42 43 44 45 46 47 48 49 50
672 ASUS44 KSJT 210215 RWRSJT WEST CENTRAL TEXAS REGIONAL WEATHER ROUNDUP NATIONAL WEATHER SERVICE SAN ANGELO TX 900 PM CDT TUE APR 20 2021 NOTE: "FAIR" INDICATES FEW OR NO CLOUDS BELOW 12,000 FEET WITH NO SIGNIFICANT WEATHER AND/OR OBSTRUCTIONS TO VISIBILITY. TXZ049-054-064>066-071>073-076>078-098-099-113-114-127-128-139-140- 154-155-168>170-210300- ...LOCATIONS ACROSS WEST CENTRAL TEXAS... CITY SKY/WX TMP DP RH WIND PRES REMARKS SAN ANGELO CLEAR 51 30 44 NE16G24 30.20R ABILENE CLEAR 47 30 51 NE8 30.24R DYESS AFB CLEAR 47 26 43 NE10 30.23R JUNCTION CLEAR 56 34 43 NE14G22 30.17R SWEETWATER CLEAR 46 26 45 NE7 30.25R BROWNWOOD CLOUDY 48 32 53 N8 30.23R COLEMAN NOT AVBL SONORA CLEAR 54 32 43 N14 30.20R OZONA FAIR 54 30 40 NE13G20 30.17R BRADY PTCLDY 50 34 53 N13 30.19R $$ TXZ001-004-007-008-010-012-014-016-OKZ002-210300- TEXAS PANHANDLE/OKLAHOMA PANHANDLE CITY SKY/WX TMP DP RH WIND PRES REMARKS AMARILLO CLEAR 37 15 40 NE8 30.21R WCI 31 BORGER CLEAR 46 11 24 NE7 30.23R CANADIAN CLEAR 42 15 33 NE6 30.25R WCI 38 DALHART CLEAR 38 17 42 NE6 30.22R WCI 33 DUMAS CLEAR 38 10 31 NE7 30.22R WCI 33 GUYMON NOT AVBL HEREFORD CLEAR 40 16 37 E6 30.22R WCI 36 PAMPA CLEAR 37 13 37 NE9 30.23S WCI 30 PERRYTON CLEAR 38 13 36 NE5 30.23R WCI 34 $$ TXZ035-026-045-048-210300- SOUTHERN PANHANDLE/SOUTH PLAINS/ROLLING PLAINS CITY SKY/WX TMP DP RH WIND PRES REMARKS LUBBOCK PTCLDY 45 20 36 E10 30.21R WCI 40 SNYDER CLEAR 47 26 42 NE8 30.23R CHILDRESS CLEAR 47 20 34 E5 30.25R SEMINOLE CLEAR 49 23 36 E9 30.22R $$ TXZ060>062-210300- PERMIAN BASIN CITY SKY/WX TMP DP RH WIND PRES REMARKS MIDLAND CLEAR 49 26 41 E13 30.18R ODESSA CLEAR 49 24 37 E10 30.18R WINK CLEAR 53 25 33 E12 30.14R $$ TXZ075-082-271-274-277-419-210300- FAR WEST/SOUTHWEST MOUNTAINS/TRANS PECOS CITY SKY/WX TMP DP RH WIND PRES REMARKS ALPINE PTCLDY 53 27 37 NE9 30.20R DRYDEN N/A 61 31 32 MISG 30.12R EL PASO PTCLDY 64 24 21 E12G17 29.97R FORT STOCKTON CLEAR 52 28 39 NE9 30.16R GUADALUPE PASS CLEAR 46 22 38 NE39 30.09R WCI 35 MARFA PTCLDY 51 27 39 NE18G24 30.14R PECOS CLEAR 55 28 36 E8 30.15S $$ TXZ118-119-210300- DALLAS/FORT WORTH METROPLEX CITY SKY/WX TMP DP RH WIND PRES REMARKS DFW AIRPORT PTCLDY 47 32 56 NE17G24 30.23R FTW MEACHAM CLEAR 46 31 55 N14 30.25R WCI 40 DAL-EXECUTIVE CLEAR 48 31 51 N13 30.23R GRAND PRAIRIE CLEAR 48 32 53 N18G25 30.25R ADDISON CLEAR 46 30 53 N18G29 30.26R WCI 39 MESQUITE CLEAR 46 32 58 N18G25 30.26R WCI 38 LANCASTER CLEAR 47 33 57 N13G22 30.25R $$ TXZ092-093-103-131-134-210300- NORTH CENTRAL TEXAS CITY SKY/WX TMP DP RH WIND PRES REMARKS SHRMAN/DENISON CLEAR 41 31 68 NE3 30.29R GAINESVILLE CLEAR 41 30 66 CALM 30.30R BRIDGEPORT CLEAR 45 31 59 N8 30.29R DENTON CLEAR 45 31 58 N12 30.27R WCI 39 WAXAHACHIE CLEAR 47 34 60 N15G23 30.24R GRANBURY CLEAR 50 34 54 N9 30.26R $$ TXZ085-086-115-141-210300- WESTERN NORTH TEXAS CITY SKY/WX TMP DP RH WIND PRES REMARKS WICHITA FALLS CLEAR 43 30 60 NE6 30.27R WCI 39 VERNON NOT AVBL BRECKENRIDGE CLEAR 49 32 52 N5 30.25R COMANCHE CLEAR 47 34 60 N10 30.23R $$ TXZ145-158-159-173-191-192-194-205-207-220-223-210300- CENTRAL AND SOUTH CENTRAL TEXAS CITY SKY/WX TMP DP RH WIND PRES REMARKS AUSTIN/BERGSTM CLEAR 61 42 49 N17G28 30.11R WACO CLEAR 54 36 50 N21G31 30.19R HILLSBORO CLEAR 50 36 59 N10G18 30.21R TEMPLE CLEAR 55 39 54 N14 30.17R KILLEEN-GRAY CLEAR 54 38 53 N17G24 30.16R FORT HOOD CLEAR 55 38 53 N13 30.18R GEORGETOWN CLEAR 59 40 49 N12 30.17R LAGO VISTA FAIR 56 38 51 N9 30.15R SAN MARCOS CLEAR 64 41 42 N18 30.11R NEW BRAUNFELS CLEAR 65 42 43 N14 30.08R RANDOLPH AFB CLEAR 66 42 41 NE20G28 30.06R SAN ANTONIO CLEAR 66 41 40 N13G28 30.08R STINSON LGT RAIN 70 43 37 N14G25 30.04R PLEASANTON NOT AVBL LA GRANGE CLEAR 65 45 48 N10G18 30.08R GIDDINGS CLEAR 62 44 51 N8 30.11R $$ TXZ095-096-136-137-148-152-210300- EAST TEXAS CITY SKY/WX TMP DP RH WIND PRES REMARKS PARIS CLOUDY 42 31 64 N15 30.25R WCI 34 CLARKSVILLE NOT AVBL TYLER CLEAR 50 36 58 N15G24 30.18R LONGVIEW NOT AVBL PALESTINE CLOUDY 54 39 58 N18G26 30.16R NACOGDOCHES CLEAR 59 45 59 N14 30.11R $$ TXZ171-183-184-186-188-203-204-210300- TEXAS HILL COUNTRY AND EDWARDS PLATEAU CITY SKY/WX TMP DP RH WIND PRES REMARKS LLANO MOCLDY 57 36 44 N13 30.17R HORSESHOE BAY FAIR 58 38 47 N7G16 30.17R KERRVILLE CLEAR 59 39 47 N15 30.13R FREDERICKSBRG CLEAR 56 36 46 NE9 30.16R ROCKSPRINGS CLEAR 57 36 44 MISG 30.16R HONDO CLEAR 68 40 35 NE18G26 30.06R UVALDE CLEAR 70 42 36 NE18G26 30.05R DEL RIO CLEAR 72 40 31 N10G25 30.04R $$ TXZ163-177-195>197-199-213-226-237-210300- SOUTHEAST TEXAS CITY SKY/WX TMP DP RH WIND PRES REMARKS COLLEGE STN CLEAR 62 44 51 N14G23 30.10R CALDWELL CLEAR 60 43 51 N13G21 30.12R CROCKETT NOT AVBL BRENHAM CLEAR 64 47 55 N10G16 30.11R HUNTSVILLE CLEAR 63 47 55 N10G18 30.09R CONROE CLEAR 65 48 54 N14G21 30.07R HOUSTON BUSH PTCLDY 71 52 50 N17 30.04R HOUSTON HOBBY PTCLDY 69 52 54 S7 30.02R PERLAND CLEAR 67 52 58 S5 30.04R WHARTON CLEAR 67 53 60 NW13 30.06R $$ TXZ215-216-236-237-438-210300- THE UPPER TEXAS COAST CITY SKY/WX TMP DP RH WIND PRES REMARKS ORANGE CLEAR 65 56 70 SW5 30.04R PORT ARTHUR CLEAR 60 56 86 S6 30.02R GALVESTON CLEAR 69 54 58 S8 30.03R ANGLETON CLEAR 63 53 70 CALM 30.03R BAY CITY CLEAR 63 56 76 S3 30.02R $$ TXZ229-232-234-239-242-243-245-247-249-250- 253-255-257-343-347-443-210300- TEXAS COASTAL BEND, RIO GRANDE PLAINS DEEP SOUTH TEXAS CITY SKY/WX TMP DP RH WIND PRES REMARKS VICTORIA CLEAR 67 56 67 VRB3 30.02R BEEVILLE FAIR 69 59 71 S6 30.01R ROCKPORT CLEAR 69 61 75 S8 30.01R PORT ARANSAS CLEAR 70 62 76 SE10 30.03R PORT LAVACA CLEAR 68 57 69 S5 30.02R CORPUS CHRISTI CLEAR 66 60 81 SE8 30.01R KINGSVILLE NAS CLEAR 68 59 73 SE7 30.01R COTULLA CLEAR 80 40 23 E8 29.97R LAREDO CLEAR 81 44 27 CALM 29.96R BROWNSVILLE CLEAR 69 59 70 E6 30.01R PORT ISABEL CLEAR 70 61 73 MISG 30.01R HEBBRONVILLE CLEAR 73 44 35 SE12G17 30.02R MCALLEN CLEAR 73 54 51 E16 30.01R WESLACO NOT AVBL FALFURRIAS CLEAR 65 55 68 SE3 30.01R

USA.gov is the U.S. government's official web portal to all federal, state and local government web resources and services.